TAM3709 SBPS-SBBR

Flight info

Callsign TAM3709
Flight time 1h 24m
Altitude 38000
Route MUKOS DCT EVPIV DCT DALMU
Aircraft A20N/M-SDE2E3FGHIRWXY/LB1

Departure

Time 2026-04-24 23:59
Airport Porto Seguro International Airport (SBPS)

Arrival

Time 2026-04-25 01:23
Airport Presidente Juscelino Kubitschek International Airport (SBBR)
Time Latitude Longitude Altitude Speed Heading
2026-04-24 23:40 -16.44058 -39.08095 163 ft 0 kts 165°
2026-04-24 23:52 -16.44054 -39.08097 163 ft 3 kts 165°
2026-04-24 23:52 -16.44036 -39.08102 163 ft 3 kts 178°
2026-04-24 23:52 -16.44021 -39.08095 163 ft 3 kts 254°
2026-04-24 23:53 -16.44020 -39.08093 163 ft 0 kts 263°
2026-04-24 23:55 -16.44020 -39.08094 163 ft 1 kts 263°
2026-04-24 23:55 -16.44023 -39.08124 163 ft 8 kts 263°
2026-04-24 23:56 -16.44039 -39.08197 163 ft 13 kts 253°
2026-04-24 23:56 -16.44047 -39.08281 163 ft 6 kts 315°
2026-04-24 23:56 -16.43980 -39.08311 162 ft 16 kts 339°
2026-04-24 23:56 -16.43924 -39.08348 161 ft 6 kts 266°
2026-04-24 23:57 -16.43945 -39.08435 161 ft 19 kts 255°
2026-04-24 23:57 -16.43991 -39.08608 162 ft 30 kts 254°
2026-04-24 23:57 -16.44035 -39.08833 163 ft 23 kts 255°
2026-04-24 23:57 -16.44063 -39.08968 163 ft 14 kts 274°
2026-04-24 23:58 -16.44072 -39.08982 163 ft 2 kts 219°
2026-04-24 23:58 -16.44086 -39.08974 163 ft 3 kts 115°
2026-04-24 23:58 -16.44082 -39.08939 163 ft 9 kts 76°
2026-04-24 23:58 -16.44009 -39.08700 162 ft 70 kts 76°
2026-04-24 23:59 -16.43823 -39.07977 164 ft 134 kts 75°
2026-04-24 23:59 -16.43572 -39.07023 726 ft 132 kts 78°
2026-04-24 23:59 -16.43352 -39.06166 1448 ft 123 kts 81°
2026-04-24 23:59 -16.43077 -39.05179 1665 ft 162 kts 61°
2026-04-25 00:00 -16.42044 -39.04508 1885 ft 200 kts 10°
2026-04-25 00:00 -16.40602 -39.04879 2154 ft 237 kts 325°
2026-04-25 00:00 -16.39571 -39.06323 2550 ft 264 kts 285°
2026-04-25 00:00 -16.39560 -39.08231 3346 ft 268 kts 252°
2026-04-25 00:01 -16.40281 -39.10030 4210 ft 271 kts 238°
2026-04-25 00:01 -16.41213 -39.11720 5103 ft 275 kts 239°
2026-04-25 00:01 -16.41750 -39.13653 5972 ft 283 kts 262°
2026-04-25 00:01 -16.41726 -39.15721 6838 ft 289 kts 275°
2026-04-25 00:02 -16.41387 -39.17795 7708 ft 292 kts 281°
2026-04-25 00:02 -16.40904 -39.19863 8634 ft 295 kts 284°
2026-04-25 00:02 -16.40382 -39.21941 9522 ft 299 kts 284°
2026-04-25 00:02 -16.39866 -39.24052 10341 ft 304 kts 283°
2026-04-25 00:03 -16.39361 -39.26263 10770 ft 323 kts 283°
2026-04-25 00:03 -16.38864 -39.28602 11319 ft 335 kts 282°
2026-04-25 00:03 -16.38381 -39.30994 12052 ft 340 kts 281°
2026-04-25 00:03 -16.37905 -39.33418 12857 ft 342 kts 282°
2026-04-25 00:04 -16.37432 -39.35849 13737 ft 343 kts 282°
2026-04-25 00:04 -16.36958 -39.38294 14490 ft 346 kts 282°
2026-04-25 00:04 -16.36641 -39.39927 14948 ft 349 kts 282°
2026-04-25 00:04 -16.35989 -39.43274 15867 ft 355 kts 282°
2026-04-25 00:05 -16.35499 -39.45775 16545 ft 359 kts 281°
2026-04-25 00:05 -16.34996 -39.48336 17216 ft 363 kts 281°
2026-04-25 00:05 -16.34487 -39.50920 17855 ft 367 kts 281°
2026-04-25 00:05 -16.34139 -39.52690 18287 ft 369 kts 281°
2026-04-25 00:06 -16.33626 -39.55292 18808 ft 373 kts 281°
2026-04-25 00:06 -16.33101 -39.57951 19292 ft 377 kts 281°
2026-04-25 00:06 -16.32571 -39.60639 19799 ft 381 kts 281°
2026-04-25 00:06 -16.32035 -39.63354 20302 ft 385 kts 281°
2026-04-25 00:07 -16.31493 -39.66097 20803 ft 389 kts 281°
2026-04-25 00:07 -16.30945 -39.68871 21310 ft 393 kts 281°
2026-04-25 00:07 -16.30391 -39.71671 21827 ft 397 kts 281°
2026-04-25 00:07 -16.29847 -39.74504 22325 ft 401 kts 277°
2026-04-25 00:08 -16.29615 -39.77408 22843 ft 404 kts 271°
2026-04-25 00:08 -16.29559 -39.80338 23363 ft 407 kts 268°
2026-04-25 00:08 -16.29600 -39.83301 23838 ft 411 kts 267°
2026-04-25 00:08 -16.29683 -39.86282 24307 ft 413 kts 266°
2026-04-25 00:09 -16.29773 -39.89276 24816 ft 414 kts 266°
2026-04-25 00:09 -16.29854 -39.92244 25307 ft 416 kts 267°
2026-04-25 00:09 -16.29925 -39.95261 25796 ft 417 kts 267°
2026-04-25 00:09 -16.29984 -39.98285 26261 ft 419 kts 267°
2026-04-25 00:10 -16.30035 -40.01329 26733 ft 421 kts 267°
2026-04-25 00:10 -16.30083 -40.04381 27158 ft 423 kts 268°
2026-04-25 00:10 -16.30130 -40.07454 27586 ft 425 kts 268°
2026-04-25 00:10 -16.30175 -40.10539 28013 ft 427 kts 268°
2026-04-25 00:11 -16.30220 -40.13638 28435 ft 428 kts 268°
2026-04-25 00:11 -16.30265 -40.16751 28854 ft 430 kts 268°
2026-04-25 00:11 -16.30311 -40.19870 29257 ft 432 kts 268°
2026-04-25 00:11 -16.30356 -40.23011 29658 ft 434 kts 268°
2026-04-25 00:12 -16.30402 -40.26163 30046 ft 436 kts 268°
2026-04-25 00:12 -16.30447 -40.29295 30366 ft 439 kts 268°
2026-04-25 00:12 -16.30493 -40.32491 30662 ft 442 kts 268°
2026-04-25 00:12 -16.30538 -40.35699 30946 ft 445 kts 268°
2026-04-25 00:13 -16.30583 -40.38930 31240 ft 447 kts 268°
2026-04-25 00:13 -16.30628 -40.42182 31537 ft 450 kts 268°
2026-04-25 00:13 -16.30673 -40.45448 31827 ft 452 kts 268°
2026-04-25 00:13 -16.30717 -40.48734 32140 ft 454 kts 268°
2026-04-25 00:14 -16.30760 -40.52012 32538 ft 453 kts 268°
2026-04-25 00:14 -16.30803 -40.55290 32950 ft 452 kts 268°
2026-04-25 00:14 -16.30844 -40.58518 33339 ft 451 kts 268°
2026-04-25 00:14 -16.30886 -40.61785 33717 ft 451 kts 268°
2026-04-25 00:15 -16.30927 -40.65047 34093 ft 451 kts 268°
2026-04-25 00:15 -16.30968 -40.68308 34412 ft 451 kts 268°
2026-04-25 00:15 -16.31008 -40.71570 34734 ft 450 kts 268°
2026-04-25 00:15 -16.31047 -40.74819 35083 ft 449 kts 268°
2026-04-25 00:16 -16.31087 -40.78063 35395 ft 448 kts 268°
2026-04-25 00:16 -16.31125 -40.81307 35691 ft 448 kts 268°
2026-04-25 00:16 -16.31164 -40.84552 35999 ft 447 kts 268°
2026-04-25 00:16 -16.31201 -40.87788 36303 ft 447 kts 268°
2026-04-25 00:17 -16.31238 -40.91019 36581 ft 447 kts 268°
2026-04-25 00:17 -16.31274 -40.94257 36866 ft 446 kts 268°
2026-04-25 00:17 -16.31310 -40.97481 37161 ft 445 kts 268°
2026-04-25 00:17 -16.31346 -41.00703 37428 ft 445 kts 268°
2026-04-25 00:18 -16.31380 -41.03883 37686 ft 444 kts 268°
2026-04-25 00:18 -16.31415 -41.07094 37938 ft 444 kts 268°
2026-04-25 00:18 -16.31449 -41.10317 38089 ft 445 kts 268°
2026-04-25 00:18 -16.31483 -41.13538 38104 ft 444 kts 268°
2026-04-25 00:19 -16.31548 -41.19963 38100 ft 443 kts 268°
2026-04-25 00:19 -16.31611 -41.26385 38093 ft 443 kts 268°
2026-04-25 00:20 -16.31673 -41.32807 38100 ft 443 kts 268°
2026-04-25 00:20 -16.31732 -41.39228 38102 ft 442 kts 268°
2026-04-25 00:21 -16.31790 -41.45633 38095 ft 442 kts 268°
2026-04-25 00:21 -16.31845 -41.51989 38096 ft 442 kts 268°
2026-04-25 00:22 -16.31899 -41.58389 38097 ft 441 kts 268°
2026-04-25 00:22 -16.31950 -41.64782 38090 ft 441 kts 268°
2026-04-25 00:23 -16.31999 -41.71161 38089 ft 441 kts 268°
2026-04-25 00:23 -16.32047 -41.77544 38089 ft 441 kts 268°
2026-04-25 00:24 -16.32093 -41.83932 38089 ft 441 kts 268°
2026-04-25 00:24 -16.32137 -41.90314 38083 ft 441 kts 269°
2026-04-25 00:25 -16.32178 -41.96654 38084 ft 439 kts 269°
2026-04-25 00:25 -16.32218 -42.03010 38090 ft 439 kts 269°
2026-04-25 00:26 -16.32255 -42.09376 38090 ft 439 kts 269°
2026-04-25 00:26 -16.32292 -42.15745 38084 ft 439 kts 268°
2026-04-25 00:27 -16.32326 -42.22063 38082 ft 439 kts 269°
2026-04-25 00:27 -16.32358 -42.28425 38088 ft 439 kts 269°
2026-04-25 00:28 -16.32388 -42.34786 38087 ft 439 kts 269°
2026-04-25 00:28 -16.32416 -42.41142 38091 ft 439 kts 269°
2026-04-25 00:29 -16.32443 -42.47500 38087 ft 439 kts 269°
2026-04-25 00:29 -16.32467 -42.53826 38087 ft 439 kts 269°
2026-04-25 00:30 -16.32490 -42.60191 38089 ft 439 kts 269°
2026-04-25 00:30 -16.32511 -42.66551 38097 ft 439 kts 269°
2026-04-25 00:31 -16.32530 -42.72912 38093 ft 440 kts 269°
2026-04-25 00:31 -16.32547 -42.79281 38096 ft 440 kts 269°
2026-04-25 00:32 -16.32521 -42.85603 38096 ft 440 kts 270°
2026-04-25 00:32 -16.32408 -42.91971 38100 ft 440 kts 270°
2026-04-25 00:33 -16.32292 -42.98333 38083 ft 439 kts 270°
2026-04-25 00:33 -16.32176 -43.04682 38089 ft 438 kts 270°
2026-04-25 00:34 -16.32059 -43.11025 38086 ft 437 kts 270°
2026-04-25 00:34 -16.31941 -43.17357 38086 ft 438 kts 270°
2026-04-25 00:35 -16.31822 -43.23653 38084 ft 437 kts 271°
2026-04-25 00:35 -16.31700 -43.29993 38076 ft 437 kts 270°
2026-04-25 00:36 -16.31576 -43.36323 38078 ft 437 kts 271°
2026-04-25 00:36 -16.31450 -43.42653 38073 ft 437 kts 270°
2026-04-25 00:37 -16.31323 -43.48994 38070 ft 438 kts 271°
2026-04-25 00:37 -16.31193 -43.55341 38056 ft 438 kts 271°
2026-04-25 00:38 -16.31062 -43.61642 38064 ft 438 kts 271°
2026-04-25 00:38 -16.30929 -43.67978 38058 ft 438 kts 271°
2026-04-25 00:39 -16.30794 -43.74318 38053 ft 438 kts 271°
2026-04-25 00:39 -16.30657 -43.80657 38056 ft 438 kts 271°
2026-04-25 00:40 -16.30518 -43.86993 38056 ft 438 kts 271°
2026-04-25 00:40 -16.30377 -43.93335 38063 ft 439 kts 271°
2026-04-25 00:41 -16.30234 -43.99693 38063 ft 439 kts 271°
2026-04-25 00:41 -16.30089 -44.06040 38060 ft 439 kts 272°
2026-04-25 00:42 -16.29941 -44.12412 38059 ft 440 kts 272°
2026-04-25 00:42 -16.29793 -44.18740 38059 ft 440 kts 271°
2026-04-25 00:43 -16.29642 -44.25108 38056 ft 440 kts 272°
2026-04-25 00:43 -16.29489 -44.31484 38057 ft 441 kts 272°
2026-04-25 00:44 -16.29333 -44.37877 38057 ft 441 kts 272°
2026-04-25 00:44 -16.29176 -44.44258 38055 ft 441 kts 272°
2026-04-25 00:45 -16.29017 -44.50646 38050 ft 441 kts 272°
2026-04-25 00:45 -16.28856 -44.57031 38045 ft 441 kts 272°
2026-04-25 00:46 -16.28694 -44.63380 38042 ft 441 kts 272°
2026-04-25 00:47 -16.28446 -44.72969 38040 ft 442 kts 272°
2026-04-25 00:47 -16.28278 -44.79363 38030 ft 442 kts 272°
2026-04-25 00:48 -16.28108 -44.85760 38031 ft 442 kts 272°
2026-04-25 00:48 -16.27935 -44.92180 38031 ft 443 kts 272°
2026-04-25 00:49 -16.27761 -44.98587 38033 ft 443 kts 272°
2026-04-25 00:49 -16.27586 -45.04953 38026 ft 442 kts 272°
2026-04-25 00:50 -16.27408 -45.11357 38030 ft 442 kts 272°
2026-04-25 00:50 -16.27228 -45.17764 38028 ft 443 kts 272°
2026-04-25 00:51 -16.27046 -45.24174 38026 ft 442 kts 272°
2026-04-25 00:51 -16.26903 -45.29151 38026 ft 442 kts 272°
2026-04-25 00:52 -16.26718 -45.35551 38030 ft 442 kts 272°
2026-04-25 00:52 -16.26531 -45.41956 38030 ft 442 kts 272°
2026-04-25 00:53 -16.26342 -45.48362 38026 ft 443 kts 272°
2026-04-25 00:53 -16.26151 -45.54775 38027 ft 443 kts 272°
2026-04-25 00:54 -16.25958 -45.61177 38034 ft 443 kts 272°
2026-04-25 00:54 -16.25763 -45.67591 38031 ft 443 kts 272°
2026-04-25 00:55 -16.25567 -45.73964 38034 ft 443 kts 272°
2026-04-25 00:55 -16.25368 -45.80382 38032 ft 443 kts 272°
2026-04-25 00:56 -16.25167 -45.86799 38041 ft 443 kts 272°
2026-04-25 00:56 -16.24964 -45.93215 38044 ft 443 kts 272°
2026-04-25 00:57 -16.24759 -45.99633 38038 ft 443 kts 273°
2026-04-25 00:57 -16.24553 -46.06011 38043 ft 443 kts 273°
2026-04-25 00:58 -16.24345 -46.12423 38051 ft 443 kts 273°
2026-04-25 00:58 -16.24134 -46.18830 38048 ft 443 kts 273°
2026-04-25 00:59 -16.23922 -46.25247 38051 ft 444 kts 273°
2026-04-25 00:59 -16.23707 -46.31662 38051 ft 444 kts 273°
2026-04-25 01:00 -16.23491 -46.38077 38053 ft 444 kts 273°
2026-04-25 01:00 -16.23272 -46.44502 38057 ft 444 kts 273°
2026-04-25 01:01 -16.23053 -46.50886 38035 ft 444 kts 273°
2026-04-25 01:01 -16.22943 -46.54084 37613 ft 441 kts 273°
2026-04-25 01:01 -16.22750 -46.57229 37059 ft 440 kts 278°
2026-04-25 01:01 -16.22195 -46.60360 36453 ft 441 kts 284°
2026-04-25 01:02 -16.21443 -46.63453 35857 ft 442 kts 285°
2026-04-25 01:02 -16.20638 -46.66546 35277 ft 443 kts 286°
2026-04-25 01:02 -16.19821 -46.69633 34773 ft 442 kts 286°
2026-04-25 01:02 -16.19002 -46.72710 34322 ft 440 kts 286°
2026-04-25 01:03 -16.18187 -46.75767 33867 ft 437 kts 285°
2026-04-25 01:03 -16.17376 -46.78808 33374 ft 435 kts 285°
2026-04-25 01:03 -16.16567 -46.81836 32880 ft 433 kts 285°
2026-04-25 01:03 -16.15764 -46.84842 32406 ft 430 kts 285°
2026-04-25 01:04 -16.14964 -46.87835 31938 ft 428 kts 285°
2026-04-25 01:04 -16.14168 -46.90813 31479 ft 426 kts 285°
2026-04-25 01:04 -16.13375 -46.93775 31031 ft 424 kts 285°
2026-04-25 01:04 -16.12595 -46.96687 30596 ft 422 kts 285°
2026-04-25 01:05 -16.11808 -46.99624 30152 ft 420 kts 285°
2026-04-25 01:05 -16.11025 -47.02545 29659 ft 418 kts 285°
2026-04-25 01:05 -16.10247 -47.05447 29218 ft 415 kts 285°
2026-04-25 01:05 -16.09475 -47.08322 28796 ft 411 kts 285°
2026-04-25 01:06 -16.08706 -47.11185 28384 ft 408 kts 285°
2026-04-25 01:06 -16.07947 -47.14011 27963 ft 405 kts 285°
2026-04-25 01:06 -16.07198 -47.16795 27526 ft 403 kts 285°
2026-04-25 01:06 -16.06447 -47.19590 27110 ft 400 kts 286°
2026-04-25 01:07 -16.05699 -47.22366 26712 ft 397 kts 286°
2026-04-25 01:07 -16.04958 -47.25120 26326 ft 394 kts 286°
2026-04-25 01:07 -16.04220 -47.27858 25940 ft 391 kts 286°
2026-04-25 01:07 -16.03482 -47.30595 25242 ft 398 kts 286°
2026-04-25 01:08 -16.02726 -47.33396 24431 ft 407 kts 286°
2026-04-25 01:08 -16.01951 -47.36265 23606 ft 416 kts 286°
2026-04-25 01:08 -16.01160 -47.39194 22594 ft 425 kts 286°
2026-04-25 01:08 -16.00363 -47.42142 22106 ft 420 kts 286°
2026-04-25 01:09 -15.99586 -47.45019 21881 ft 407 kts 286°
2026-04-25 01:09 -15.98833 -47.47805 21694 ft 395 kts 286°
2026-04-25 01:09 -15.98101 -47.50509 21517 ft 383 kts 286°
2026-04-25 01:09 -15.97391 -47.53132 21352 ft 371 kts 286°
2026-04-25 01:10 -15.96700 -47.55682 21118 ft 362 kts 286°
2026-04-25 01:10 -15.96021 -47.58185 20770 ft 358 kts 286°
2026-04-25 01:10 -15.95263 -47.60635 20367 ft 354 kts 293°
2026-04-25 01:10 -15.94252 -47.62956 19974 ft 351 kts 296°
2026-04-25 01:11 -15.93177 -47.65229 19547 ft 350 kts 297°
2026-04-25 01:11 -15.92094 -47.67489 19136 ft 348 kts 297°
2026-04-25 01:11 -15.91021 -47.69733 18783 ft 345 kts 297°
2026-04-25 01:11 -15.89968 -47.71940 18607 ft 336 kts 297°
2026-04-25 01:12 -15.88939 -47.74098 18247 ft 333 kts 297°
2026-04-25 01:12 -15.87914 -47.76251 17709 ft 334 kts 296°
2026-04-25 01:12 -15.86883 -47.78416 16881 ft 344 kts 296°
2026-04-25 01:12 -15.85806 -47.80677 16000 ft 355 kts 296°
2026-04-25 01:13 -15.84697 -47.83005 15256 ft 364 kts 296°
2026-04-25 01:13 -15.83565 -47.85382 14424 ft 370 kts 296°
2026-04-25 01:13 -15.82417 -47.87791 13560 ft 375 kts 296°
2026-04-25 01:13 -15.81260 -47.90220 12958 ft 371 kts 296°
2026-04-25 01:14 -15.80139 -47.92574 12710 ft 357 kts 296°
2026-04-25 01:14 -15.79060 -47.94836 12506 ft 342 kts 297°
2026-04-25 01:14 -15.78027 -47.97009 12316 ft 329 kts 296°
2026-04-25 01:14 -15.77394 -47.99233 12114 ft 317 kts 275°
2026-04-25 01:15 -15.77402 -48.01480 11876 ft 308 kts 268°
2026-04-25 01:15 -15.77548 -48.03693 11409 ft 307 kts 266°
2026-04-25 01:15 -15.77712 -48.05909 10933 ft 307 kts 266°
2026-04-25 01:15 -15.77871 -48.08127 10448 ft 307 kts 267°
2026-04-25 01:16 -15.78022 -48.10341 9990 ft 307 kts 266°
2026-04-25 01:16 -15.78167 -48.12517 9481 ft 306 kts 267°
2026-04-25 01:16 -15.78310 -48.14717 8973 ft 305 kts 266°
2026-04-25 01:16 -15.78721 -48.16864 8467 ft 305 kts 245°
2026-04-25 01:17 -15.80052 -48.18536 7973 ft 303 kts 213°
2026-04-25 01:17 -15.81999 -48.19262 7497 ft 299 kts 182°
2026-04-25 01:17 -15.83999 -48.18846 7027 ft 294 kts 151°
2026-04-25 01:17 -15.85449 -48.17425 6653 ft 286 kts 118°
2026-04-25 01:18 -15.86175 -48.15554 6522 ft 273 kts 109°
2026-04-25 01:18 -15.86867 -48.13777 6453 ft 258 kts 114°
2026-04-25 01:18 -15.87439 -48.12103 6448 ft 234 kts 99°
2026-04-25 01:18 -15.87516 -48.10518 6482 ft 205 kts 86°
2026-04-25 01:19 -15.87403 -48.09095 6478 ft 195 kts 85°
2026-04-25 01:19 -15.87306 -48.07724 6293 ft 187 kts 86°
2026-04-25 01:19 -15.87228 -48.06424 6041 ft 175 kts 86°
2026-04-25 01:19 -15.87152 -48.05182 5829 ft 168 kts 86°
2026-04-25 01:20 -15.87078 -48.04035 5612 ft 152 kts 86°
2026-04-25 01:20 -15.87011 -48.02988 5405 ft 141 kts 86°
2026-04-25 01:20 -15.86946 -48.01976 5242 ft 140 kts 86°
2026-04-25 01:20 -15.86881 -48.00961 5064 ft 141 kts 86°
2026-04-25 01:21 -15.86816 -47.99945 4885 ft 141 kts 86°
2026-04-25 01:21 -15.86750 -47.98930 4679 ft 141 kts 86°
2026-04-25 01:21 -15.86684 -47.97918 4536 ft 141 kts 86°
2026-04-25 01:21 -15.86616 -47.96908 4355 ft 140 kts 86°
2026-04-25 01:22 -15.86547 -47.95900 4182 ft 139 kts 86°
2026-04-25 01:22 -15.86490 -47.94894 3958 ft 139 kts 89°
2026-04-25 01:22 -15.86435 -47.93891 3730 ft 138 kts 86°
2026-04-25 01:22 -15.86361 -47.92899 3531 ft 136 kts 85°
2026-04-25 01:23 -15.86306 -47.91982 3468 ft 107 kts 87°
2026-04-25 01:23 -15.86270 -47.91397 3467 ft 65 kts 86°
2026-04-25 01:23 -15.86244 -47.90973 3479 ft 42 kts 89°
2026-04-25 01:23 -15.86325 -47.90770 3485 ft 14 kts 130°
2026-04-25 01:24 -15.86391 -47.90702 3486 ft 8 kts 166°
2026-04-25 01:24 -15.86414 -47.90722 3486 ft 6 kts 235°
2026-04-25 01:24 -15.86427 -47.90767 3487 ft 9 kts 264°
2026-04-25 01:24 -15.86432 -47.90859 3482 ft 16 kts 271°
2026-04-25 01:25 -15.86435 -47.90988 3476 ft 13 kts 264°
2026-04-25 01:25 -15.86446 -47.91096 3473 ft 16 kts 264°
2026-04-25 01:25 -15.86456 -47.91215 3472 ft 16 kts 270°
2026-04-25 01:25 -15.86457 -47.91332 3471 ft 17 kts 268°
2026-04-25 01:26 -15.86463 -47.91460 3468 ft 18 kts 263°
2026-04-25 01:26 -15.86476 -47.91576 3468 ft 5 kts 263°
2026-04-25 01:26 -15.86482 -47.91606 3467 ft 3 kts 247°
2026-04-25 01:26 -15.86500 -47.91621 3469 ft 4 kts 203°
2026-04-25 01:27 -15.86543 -47.91625 3470 ft 10 kts 179°
2026-04-25 01:27 -15.86627 -47.91623 3474 ft 12 kts 179°
2026-04-25 01:27 -15.86707 -47.91618 3474 ft 11 kts 176°
2026-04-25 01:28 -15.86859 -47.91608 3474 ft 11 kts 176°
2026-04-25 01:28 -15.86934 -47.91603 3472 ft 11 kts 176°
2026-04-25 01:28 -15.87011 -47.91598 3473 ft 11 kts 182°
2026-04-25 01:28 -15.87051 -47.91640 3475 ft 7 kts 260°
2026-04-25 01:29 -15.87057 -47.91685 3474 ft 6 kts 264°
2026-04-25 01:29 -15.87060 -47.91727 3474 ft 6 kts 265°
2026-04-25 01:29 -15.87063 -47.91765 3475 ft 6 kts 266°
2026-04-25 01:29 -15.87068 -47.91811 3475 ft 5 kts 245°
2026-04-25 01:30 -15.87086 -47.91818 3474 ft 2 kts 181°
2026-04-25 01:30 -15.87113 -47.91818 3475 ft 6 kts 177°
2026-04-25 01:30 -15.87129 -47.91817 3475 ft 0 kts 174°